Home > Weather > Wakefield > Past weeks

Flag for United Kingdom Weather for the Past 2 Weeks in Wakefield, England, United Kingdom

Now
50 °F

Passing clouds.


Feels Like: 46 °F
Forecast: 44 / 56 °F
Wind: 10 mph from Southwest

Location: Leeds And Bradford

Current Time: May 2, 2016 at 12:11:01 AM

Latest Report: May 1, 2016 at 11:20 PM


Visibility: N/A

Pressure: 30.09 "Hg

Humidity: 94%

Dew Point: 48 °F

Location of WakefieldLocation

Historic Weather in Wakefield — Graph

°F

Wakefield Temperature Yesterday

Maximum temperature yesterday: 50 °F (at 8:50 PM)
Minimum temperature yesterday: 36 °F (at 12:20 AM)
Average temperature yesterday: 44 °F

High & Low Weather Summary for the Past Weeks

 TemperatureHumidityPressure
High57 °F (Apr 20, 1:20 PM)100% (Apr 22, 12:50 AM)30.48 "Hg (Apr 22, 12:50 AM)
Low28 °F (Apr 28, 12:50 AM)41% (Apr 20, 1:20 PM)29.53 "Hg (Apr 29, 7:50 AM)
Average41 °F76%30.04 "Hg
* Reported Apr 16 10:20 PM — May 1 10:20 PM, Wakefield, Weather by CustomWeather, © 2016

Note: Actual official high and low records may vary slightly from our data, if they occured in-between our weather recording intervals... More about our weather records

Advertising

Wakefield Weather History for the Previous 24 Hours

Scroll right to see more
 ConditionsComfort  
Time TempWeatherWind HumidityBarometerVisibility
10:20 PM
Sun, May 1
50 °FPassing clouds.8 mph94%30.12 "HgN/A
9:50 PM50 °FPassing clouds.8 mph94%30.12 "HgN/A
9:20 PM50 °FPartly sunny.10 mph94%30.12 "HgN/A
8:50 PM50 °FPartly sunny.7 mph88%30.12 "HgN/A
8:20 PM48 °FPartly sunny.6 mph94%30.12 "HgN/A
7:50 PM48 °FLight rain. Partly sunny.7 mph94%30.15 "HgN/A
7:20 PM48 °FLight rain. Partly sunny.8 mph94%30.15 "HgN/A
6:50 PM48 °FPartly sunny.12 mph94%30.15 "HgN/A
6:20 PM48 °FPartly sunny.12 mph94%30.15 "HgN/A
5:50 PM48 °FPartly sunny.10 mph94%30.15 "HgN/A
5:20 PM48 °FPartly sunny.12 mph87%30.15 "HgN/A
4:50 PM48 °FPartly sunny.9 mph87%30.15 "HgN/A
4:20 PM48 °FPartly sunny.10 mph87%30.15 "HgN/A
3:50 PM48 °FPartly sunny.12 mph87%30.18 "HgN/A
3:20 PM48 °FPartly sunny.12 mph87%30.18 "HgN/A
2:50 PM48 °FLight rain. Partly sunny.12 mph87%30.18 "HgN/A
2:20 PM48 °FLight rain. Broken clouds.10 mph87%30.18 "HgN/A
1:50 PM48 °FLight rain. Broken clouds.9 mph82%30.18 "HgN/A
1:20 PM48 °FLight rain. Broken clouds.14 mph76%30.18 "HgN/A
12:50 PM48 °FLight rain. Broken clouds.12 mph82%30.18 "HgN/A
12:20 PM46 °FLight rain. Broken clouds.13 mph87%30.18 "HgN/A
11:50 AM46 °FSprinkles. Scattered clouds.7 mph82%30.21 "HgN/A
11:20 AM46 °FSprinkles. Scattered clouds.12 mph76%30.21 "HgN/A
10:50 AM45 °FSprinkles. Passing clouds.12 mph81%30.21 "HgN/A
10:20 AM45 °FSprinkles. Passing clouds.14 mph87%30.21 "HgN/A
9:50 AM45 °FSprinkles. Passing clouds.10 mph81%30.21 "HgN/A
9:20 AM45 °FPassing clouds.10 mph76%30.21 "HgN/A
8:50 AM45 °FPassing clouds.12 mph76%30.21 "HgN/A
7:50 AM43 °FPassing clouds.9 mph81%30.21 "HgN/A
7:20 AM41 °FPassing clouds.8 mph87%30.21 "HgN/A
6:50 AM39 °FSunny.7 mph87%30.21 "Hg10 mi
6:20 AM39 °FPassing clouds.7 mph87%30.21 "HgN/A
5:20 AM39 °FPassing clouds.7 mph87%30.21 "HgN/A
4:50 AM37 °FClear.7 mph87%30.21 "Hg10 mi
4:20 AM36 °FClear.5 mph93%30.24 "Hg10 mi
3:20 AM36 °FClear.7 mph93%30.24 "Hg10 mi
2:50 AM37 °FClear.5 mph87%30.24 "Hg10 mi
2:20 AM37 °FPassing clouds.8 mph87%30.24 "HgN/A
1:50 AM37 °FClear.8 mph87%30.24 "Hg10 mi
1:20 AM36 °FClear.6 mph93%30.24 "Hg10 mi
12:50 AM36 °FClear.7 mph93%30.24 "Hg10 mi
12:20 AM36 °FClear.6 mph93%30.24 "Hg10 mi
Weather by CustomWeather, © 2016

See weather overviewHow to use our weather pages